DLH26C EDDF-LEBL

Flight info

Callsign DLH26C
Flight time 1h 39m
Altitude 35000
Route ANEKI2L/18 ANEKI Y163 HERBI Y164 MOPAN DCT LUTIX DCT BENOT DCT NEMOS DCT GEVEA/N0425F270 DCT INCUS DCT BALSI/N0456F350 DCT RETNO DCT TUPOX DCT MTG DCT DIVKO DCT NILDU DCT BISBA
Aircraft A321/M-SDE3FGHIRWY/LB1

Departure

Time 2026-05-05 17:12
Airport Frankfurt Main Airport (EDDF)

Arrival

Time 2026-05-05 18:52
Airport Josep Tarradellas Barcelona-El Prat Airport (LEBL)
Time Latitude Longitude Altitude Speed Heading
2026-05-05 16:36 50.04608 8.56771 360 ft 0 kts 295°
2026-05-05 16:37 50.04608 8.56772 360 ft 0 kts 294°
2026-05-05 17:00 50.04601 8.56794 364 ft 4 kts 293°
2026-05-05 17:00 50.04590 8.56833 363 ft 3 kts 296°
2026-05-05 17:01 50.04582 8.56864 364 ft 4 kts 274°
2026-05-05 17:01 50.04588 8.56897 364 ft 4 kts 215°
2026-05-05 17:01 50.04612 8.56913 362 ft 3 kts 193°
2026-05-05 17:01 50.04596 8.56907 364 ft 4 kts 193°
2026-05-05 17:02 50.04570 8.56898 363 ft 4 kts 193°
2026-05-05 17:02 50.04544 8.56888 359 ft 4 kts 193°
2026-05-05 17:02 50.04533 8.56884 359 ft 0 kts 193°
2026-05-05 17:04 50.04532 8.56884 359 ft 1 kts 193°
2026-05-05 17:05 50.04506 8.56874 359 ft 6 kts 193°
2026-05-05 17:05 50.04454 8.56827 363 ft 12 kts 237°
2026-05-05 17:05 50.04416 8.56679 359 ft 18 kts 249°
2026-05-05 17:05 50.04366 8.56467 360 ft 24 kts 250°
2026-05-05 17:06 50.04305 8.56216 360 ft 25 kts 250°
2026-05-05 17:06 50.04245 8.55965 358 ft 26 kts 250°
2026-05-05 17:06 50.04180 8.55694 360 ft 28 kts 249°
2026-05-05 17:06 50.04114 8.55414 353 ft 26 kts 250°
2026-05-05 17:07 50.04055 8.55170 355 ft 22 kts 249°
2026-05-05 17:07 50.04001 8.54942 356 ft 23 kts 250°
2026-05-05 17:07 50.03942 8.54699 354 ft 25 kts 250°
2026-05-05 17:07 50.03880 8.54438 356 ft 27 kts 249°
2026-05-05 17:08 50.03789 8.54181 352 ft 28 kts 249°
2026-05-05 17:08 50.03720 8.53892 353 ft 29 kts 250°
2026-05-05 17:08 50.03647 8.53592 345 ft 29 kts 247°
2026-05-05 17:08 50.03578 8.53309 337 ft 27 kts 249°
2026-05-05 17:09 50.03515 8.53051 335 ft 24 kts 249°
2026-05-05 17:09 50.03458 8.52827 332 ft 15 kts 246°
2026-05-05 17:09 50.03434 8.52734 335 ft 1 kts 249°
2026-05-05 17:09 50.03434 8.52732 331 ft 0 kts 249°
2026-05-05 17:10 50.03422 8.52684 333 ft 10 kts 249°
2026-05-05 17:10 50.03364 8.52595 335 ft 13 kts 186°
2026-05-05 17:10 50.03347 8.52595 335 ft 0 kts 180°
2026-05-05 17:11 50.03346 8.52595 335 ft 1 kts 180°
2026-05-05 17:12 50.03185 8.52594 336 ft 58 kts 180°
2026-05-05 17:12 50.02549 8.52602 334 ft 123 kts 180°
2026-05-05 17:12 50.01509 8.52611 337 ft 174 kts 180°
2026-05-05 17:12 50.00301 8.52630 1001 ft 171 kts 181°
2026-05-05 17:13 49.99113 8.52694 1719 ft 171 kts 180°
2026-05-05 17:13 49.97871 8.52784 2056 ft 186 kts 180°
2026-05-05 17:13 49.96522 8.52880 2360 ft 202 kts 180°
2026-05-05 17:13 49.95051 8.52988 2621 ft 220 kts 179°
2026-05-05 17:14 49.93474 8.53103 3068 ft 230 kts 180°
2026-05-05 17:14 49.91866 8.53212 3732 ft 235 kts 179°
2026-05-05 17:14 49.90235 8.53312 4428 ft 232 kts 179°
2026-05-05 17:14 49.88630 8.53416 5251 ft 230 kts 179°
2026-05-05 17:15 49.87026 8.53527 5990 ft 232 kts 179°
2026-05-05 17:15 49.85954 8.53602 6447 ft 233 kts 179°
2026-05-05 17:15 49.84326 8.53717 7112 ft 236 kts 179°
2026-05-05 17:15 49.82679 8.53832 7789 ft 238 kts 179°
2026-05-05 17:16 49.81017 8.53947 8471 ft 240 kts 179°
2026-05-05 17:16 49.79340 8.54063 9152 ft 243 kts 179°
2026-05-05 17:16 49.77604 8.54084 9507 ft 260 kts 187°
2026-05-05 17:16 49.75739 8.53832 9757 ft 279 kts 187°
2026-05-05 17:17 49.73753 8.53562 10001 ft 294 kts 187°
2026-05-05 17:17 49.71660 8.53279 10295 ft 309 kts 187°
2026-05-05 17:17 49.69482 8.52985 10663 ft 320 kts 187°
2026-05-05 17:17 49.67227 8.52683 11030 ft 331 kts 186°
2026-05-05 17:18 49.64899 8.52376 11405 ft 340 kts 187°
2026-05-05 17:18 49.62508 8.52063 11785 ft 349 kts 187°
2026-05-05 17:18 49.60063 8.51743 12267 ft 355 kts 187°
2026-05-05 17:18 49.57582 8.51419 12782 ft 360 kts 187°
2026-05-05 17:19 49.55071 8.51094 13316 ft 364 kts 187°
2026-05-05 17:19 49.52539 8.50766 13826 ft 367 kts 187°
2026-05-05 17:19 49.49980 8.50434 14304 ft 371 kts 187°
2026-05-05 17:19 49.47398 8.50096 14789 ft 374 kts 187°
2026-05-05 17:20 49.44798 8.49753 15282 ft 377 kts 186°
2026-05-05 17:20 49.42174 8.49408 15782 ft 380 kts 186°
2026-05-05 17:20 49.39529 8.49061 16282 ft 383 kts 186°
2026-05-05 17:20 49.36870 8.48713 16803 ft 384 kts 186°
2026-05-05 17:21 49.34201 8.48365 17325 ft 385 kts 186°
2026-05-05 17:21 49.31531 8.48017 17859 ft 386 kts 186°
2026-05-05 17:21 49.28855 8.47668 18360 ft 386 kts 186°
2026-05-05 17:22 49.23500 8.46970 19315 ft 386 kts 186°
2026-05-05 17:22 49.20816 8.46623 19702 ft 390 kts 186°
2026-05-05 17:22 49.18081 8.46270 19823 ft 400 kts 185°
2026-05-05 17:22 49.15273 8.45906 19965 ft 409 kts 185°
2026-05-05 17:23 49.12420 8.45535 20262 ft 413 kts 185°
2026-05-05 17:23 49.09545 8.45160 20621 ft 416 kts 185°
2026-05-05 17:23 49.06655 8.44751 20980 ft 418 kts 188°
2026-05-05 17:23 49.03795 8.43865 21334 ft 421 kts 193°
2026-05-05 17:24 49.00936 8.42863 21698 ft 423 kts 193°
2026-05-05 17:24 48.98061 8.41856 22071 ft 425 kts 193°
2026-05-05 17:24 48.95175 8.40849 22443 ft 427 kts 193°
2026-05-05 17:24 48.92273 8.39841 22799 ft 429 kts 193°
2026-05-05 17:25 48.89357 8.38830 23148 ft 431 kts 193°
2026-05-05 17:25 48.87414 8.38155 23376 ft 433 kts 193°
2026-05-05 17:25 48.83476 8.36785 23772 ft 436 kts 193°
2026-05-05 17:25 48.80512 8.35760 24079 ft 437 kts 193°
2026-05-05 17:26 48.77539 8.34732 24388 ft 439 kts 193°
2026-05-05 17:26 48.74565 8.33673 24721 ft 440 kts 193°
2026-05-05 17:26 48.71584 8.32584 25015 ft 441 kts 193°
2026-05-05 17:26 48.68596 8.31477 25290 ft 443 kts 193°
2026-05-05 17:27 48.65599 8.30365 25560 ft 444 kts 193°
2026-05-05 17:27 48.62591 8.29258 25818 ft 446 kts 193°
2026-05-05 17:27 48.59571 8.28155 26063 ft 447 kts 193°
2026-05-05 17:27 48.56542 8.27054 26288 ft 449 kts 193°
2026-05-05 17:28 48.53501 8.25955 26516 ft 450 kts 193°
2026-05-05 17:28 48.50452 8.24860 26732 ft 451 kts 193°
2026-05-05 17:28 48.47395 8.23763 26929 ft 452 kts 193°
2026-05-05 17:28 48.44331 8.22653 27121 ft 454 kts 193°
2026-05-05 17:29 48.41262 8.21527 27389 ft 452 kts 193°
2026-05-05 17:29 48.38218 8.20405 27789 ft 449 kts 193°
2026-05-05 17:29 48.35189 8.19289 28108 ft 448 kts 193°
2026-05-05 17:29 48.32160 8.18178 28345 ft 449 kts 193°
2026-05-05 17:30 48.29134 8.17077 28716 ft 445 kts 193°
2026-05-05 17:30 48.26137 8.15976 29130 ft 442 kts 195°
2026-05-05 17:30 48.23261 8.14419 29554 ft 439 kts 204°
2026-05-05 17:30 48.20530 8.12398 29946 ft 437 kts 206°
2026-05-05 17:31 48.17807 8.10367 30193 ft 437 kts 205°
2026-05-05 17:31 48.15079 8.08346 30445 ft 437 kts 205°
2026-05-05 17:31 48.12353 8.06339 30691 ft 436 kts 205°
2026-05-05 17:31 48.09628 8.04342 30940 ft 436 kts 205°
2026-05-05 17:32 48.06897 8.02345 31071 ft 438 kts 205°
2026-05-05 17:32 48.04159 8.00339 31246 ft 439 kts 205°
2026-05-05 17:32 48.01417 7.98325 31461 ft 439 kts 206°
2026-05-05 17:32 47.98680 7.96312 31685 ft 438 kts 206°
2026-05-05 17:33 47.95944 7.94300 31911 ft 438 kts 206°
2026-05-05 17:33 47.93220 7.92294 32171 ft 435 kts 206°
2026-05-05 17:33 47.90511 7.90307 32452 ft 433 kts 206°
2026-05-05 17:33 47.87810 7.88335 32705 ft 432 kts 206°
2026-05-05 17:34 47.85115 7.86373 32934 ft 431 kts 206°
2026-05-05 17:34 47.82428 7.84416 33143 ft 430 kts 206°
2026-05-05 17:34 47.79745 7.82465 33369 ft 429 kts 206°
2026-05-05 17:34 47.77066 7.80518 33587 ft 428 kts 206°
2026-05-05 17:35 47.74389 7.78577 33783 ft 427 kts 206°
2026-05-05 17:35 47.71722 7.76643 33985 ft 426 kts 206°
2026-05-05 17:35 47.69056 7.74708 34149 ft 426 kts 206°
2026-05-05 17:35 47.66398 7.72779 34309 ft 426 kts 206°
2026-05-05 17:36 47.63738 7.70849 34474 ft 426 kts 206°
2026-05-05 17:36 47.61076 7.68921 34619 ft 426 kts 206°
2026-05-05 17:36 47.58417 7.67003 34774 ft 425 kts 206°
2026-05-05 17:37 47.53085 7.63167 34889 ft 426 kts 207°
2026-05-05 17:37 47.47749 7.59339 34891 ft 426 kts 206°
2026-05-05 17:38 47.42412 7.55518 34889 ft 426 kts 206°
2026-05-05 17:38 47.37075 7.51703 34886 ft 426 kts 206°
2026-05-05 17:39 47.31744 7.47896 34886 ft 425 kts 207°
2026-05-05 17:39 47.26413 7.44093 34907 ft 426 kts 207°
2026-05-05 17:40 47.21073 7.40302 34911 ft 426 kts 207°
2026-05-05 17:40 47.16079 7.35701 34912 ft 425 kts 222°
2026-05-05 17:41 47.12221 7.29155 34912 ft 424 kts 231°
2026-05-05 17:41 47.08550 7.22379 34917 ft 424 kts 231°
2026-05-05 17:42 47.04867 7.15624 34931 ft 424 kts 231°
2026-05-05 17:42 47.01184 7.08882 34916 ft 424 kts 231°
2026-05-05 17:43 46.97502 7.02145 34919 ft 423 kts 231°
2026-05-05 17:43 46.93818 6.95428 34938 ft 423 kts 230°
2026-05-05 17:44 46.89878 6.89077 34927 ft 422 kts 220°
2026-05-05 17:44 46.85326 6.83660 34919 ft 422 kts 219°
2026-05-05 17:45 46.80779 6.78237 34917 ft 422 kts 219°
2026-05-05 17:45 46.76260 6.72861 34908 ft 422 kts 219°
2026-05-05 17:46 46.71712 6.67477 34929 ft 420 kts 220°
2026-05-05 17:46 46.67178 6.62110 34933 ft 420 kts 219°
2026-05-05 17:47 46.62650 6.56761 34937 ft 419 kts 219°
2026-05-05 17:47 46.58119 6.51436 34943 ft 419 kts 219°
2026-05-05 17:48 46.53591 6.46115 34970 ft 419 kts 219°
2026-05-05 17:48 46.49064 6.40784 34942 ft 419 kts 219°
2026-05-05 17:49 46.44518 6.35473 34938 ft 420 kts 219°
2026-05-05 17:49 46.39964 6.30168 34938 ft 420 kts 219°
2026-05-05 17:50 46.35416 6.24868 34942 ft 419 kts 219°
2026-05-05 17:50 46.30871 6.19585 34948 ft 419 kts 219°
2026-05-05 17:51 46.26159 6.14663 34947 ft 419 kts 208°
2026-05-05 17:51 46.20593 6.12145 34945 ft 424 kts 191°
2026-05-05 17:52 46.14756 6.10870 34944 ft 424 kts 192°
2026-05-05 17:52 46.08922 6.09568 34942 ft 424 kts 192°
2026-05-05 17:53 46.03087 6.08265 34917 ft 424 kts 192°
2026-05-05 17:53 45.97255 6.06968 34908 ft 424 kts 193°
2026-05-05 17:54 45.91429 6.05683 34919 ft 423 kts 193°
2026-05-05 17:54 45.85616 6.04407 34920 ft 422 kts 192°
2026-05-05 17:55 45.79818 6.03134 34907 ft 421 kts 193°
2026-05-05 17:55 45.74021 6.01861 34916 ft 421 kts 193°
2026-05-05 17:56 45.68233 6.00580 34911 ft 421 kts 193°
2026-05-05 17:56 45.62445 5.99305 34913 ft 421 kts 193°
2026-05-05 17:57 45.56660 5.98030 34908 ft 421 kts 193°
2026-05-05 17:57 45.51847 5.96984 34913 ft 421 kts 193°
2026-05-05 17:58 45.46059 5.95686 34924 ft 421 kts 195°
2026-05-05 17:58 45.40358 5.93961 34916 ft 418 kts 198°
2026-05-05 17:59 45.34705 5.92052 34918 ft 417 kts 198°
2026-05-05 17:59 45.29043 5.90209 34926 ft 418 kts 197°
2026-05-05 18:00 45.23362 5.88442 34932 ft 417 kts 197°
2026-05-05 18:00 45.17695 5.86706 34939 ft 416 kts 197°
2026-05-05 18:01 45.12058 5.84971 34943 ft 414 kts 197°
2026-05-05 18:01 45.06433 5.83232 34945 ft 413 kts 197°
2026-05-05 18:02 45.00830 5.81501 34941 ft 411 kts 197°
2026-05-05 18:02 44.95256 5.79787 34951 ft 409 kts 197°
2026-05-05 18:03 44.89717 5.78088 34949 ft 406 kts 197°
2026-05-05 18:03 44.84198 5.76399 34930 ft 405 kts 197°
2026-05-05 18:04 44.78703 5.74716 34948 ft 403 kts 197°
2026-05-05 18:04 44.73230 5.73037 34951 ft 402 kts 197°
2026-05-05 18:05 44.67768 5.71362 34954 ft 401 kts 197°
2026-05-05 18:05 44.62295 5.69700 34955 ft 404 kts 197°
2026-05-05 18:06 44.56807 5.68042 34947 ft 403 kts 197°
2026-05-05 18:06 44.51318 5.66372 34949 ft 404 kts 197°
2026-05-05 18:07 44.45820 5.64702 34933 ft 404 kts 197°
2026-05-05 18:07 44.40324 5.63048 34944 ft 403 kts 197°
2026-05-05 18:08 44.35024 5.60710 34951 ft 398 kts 205°
2026-05-05 18:08 44.29870 5.57879 34952 ft 398 kts 205°
2026-05-05 18:09 44.24708 5.55062 34939 ft 398 kts 205°
2026-05-05 18:09 44.19558 5.52254 34944 ft 396 kts 205°
2026-05-05 18:10 44.14417 5.49455 34952 ft 397 kts 205°
2026-05-05 18:10 44.09267 5.46655 34927 ft 397 kts 205°
2026-05-05 18:11 44.04163 5.43880 34946 ft 396 kts 205°
2026-05-05 18:11 43.99041 5.41099 34950 ft 395 kts 205°
2026-05-05 18:12 43.93885 5.38307 34957 ft 395 kts 205°
2026-05-05 18:12 43.88803 5.35564 34936 ft 394 kts 205°
2026-05-05 18:13 43.83664 5.32788 34976 ft 394 kts 205°
2026-05-05 18:13 43.78591 5.30050 34956 ft 394 kts 205°
2026-05-05 18:14 43.73482 5.27298 34949 ft 394 kts 205°
2026-05-05 18:14 43.68367 5.24549 34930 ft 394 kts 205°
2026-05-05 18:15 43.63263 5.21801 34937 ft 393 kts 205°
2026-05-05 18:15 43.58161 5.19079 34938 ft 393 kts 205°
2026-05-05 18:16 43.53058 5.16366 34939 ft 393 kts 205°
2026-05-05 18:16 43.47964 5.13650 34933 ft 392 kts 205°
2026-05-05 18:17 43.42874 5.10940 34936 ft 392 kts 205°
2026-05-05 18:17 43.37891 5.07964 34937 ft 388 kts 214°
2026-05-05 18:18 43.33448 5.03793 34936 ft 387 kts 217°
2026-05-05 18:18 43.29016 4.99606 34925 ft 386 kts 217°
2026-05-05 18:19 43.24588 4.95442 34932 ft 386 kts 216°
2026-05-05 18:19 43.20162 4.91296 34931 ft 385 kts 216°
2026-05-05 18:20 43.15739 4.87152 34928 ft 385 kts 216°
2026-05-05 18:20 43.11315 4.83007 34908 ft 385 kts 216°
2026-05-05 18:21 43.06888 4.78875 34926 ft 385 kts 216°
2026-05-05 18:21 43.02775 4.74244 34932 ft 383 kts 223°
2026-05-05 18:22 42.98789 4.69417 34931 ft 383 kts 222°
2026-05-05 18:22 42.94796 4.64603 34933 ft 383 kts 222°
2026-05-05 18:23 42.90809 4.59789 34915 ft 382 kts 222°
2026-05-05 18:23 42.86819 4.54988 34938 ft 383 kts 222°
2026-05-05 18:24 42.82826 4.50194 34933 ft 383 kts 222°
2026-05-05 18:24 42.78824 4.45404 34926 ft 383 kts 222°
2026-05-05 18:25 42.74813 4.40611 34921 ft 384 kts 222°
2026-05-05 18:25 42.70793 4.35801 34921 ft 385 kts 222°
2026-05-05 18:26 42.66768 4.30991 34920 ft 386 kts 222°
2026-05-05 18:26 42.62732 4.26182 34924 ft 386 kts 222°
2026-05-05 18:27 42.58696 4.21374 34920 ft 386 kts 222°
2026-05-05 18:27 42.54649 4.16571 34926 ft 388 kts 222°
2026-05-05 18:28 42.48552 4.09357 34910 ft 388 kts 222°
2026-05-05 18:28 42.44488 4.04558 34927 ft 386 kts 222°
2026-05-05 18:29 42.40446 3.99805 34831 ft 383 kts 222°
2026-05-05 18:29 42.38439 3.97445 34202 ft 382 kts 222°
2026-05-05 18:29 42.36437 3.95087 33450 ft 381 kts 222°
2026-05-05 18:30 42.34447 3.92747 32764 ft 377 kts 222°
2026-05-05 18:30 42.32478 3.90432 32066 ft 373 kts 223°
2026-05-05 18:30 42.30523 3.88134 31370 ft 372 kts 223°
2026-05-05 18:30 42.28572 3.85844 30628 ft 371 kts 223°
2026-05-05 18:31 42.26621 3.83559 29764 ft 373 kts 223°
2026-05-05 18:31 42.24655 3.81254 28796 ft 375 kts 223°
2026-05-05 18:31 42.22678 3.78940 27884 ft 378 kts 222°
2026-05-05 18:31 42.20688 3.76615 27046 ft 378 kts 222°
2026-05-05 18:32 42.18713 3.74313 26503 ft 372 kts 222°
2026-05-05 18:32 42.16764 3.72045 25881 ft 368 kts 222°
2026-05-05 18:32 42.14832 3.69797 25279 ft 365 kts 221°
2026-05-05 18:32 42.12936 3.67591 24946 ft 354 kts 221°
2026-05-05 18:33 42.11098 3.65454 24706 ft 346 kts 221°
2026-05-05 18:33 42.09285 3.63343 24457 ft 344 kts 221°
2026-05-05 18:33 42.07582 3.61107 24083 ft 342 kts 226°
2026-05-05 18:33 42.05940 3.58793 23747 ft 341 kts 226°
2026-05-05 18:34 42.04304 3.56504 23425 ft 339 kts 226°
2026-05-05 18:34 42.02661 3.54216 23145 ft 341 kts 226°
2026-05-05 18:34 42.01015 3.51926 22869 ft 340 kts 226°
2026-05-05 18:34 41.99372 3.49641 22599 ft 340 kts 226°
2026-05-05 18:35 41.97730 3.47357 22326 ft 339 kts 226°
2026-05-05 18:35 41.96090 3.45079 22028 ft 339 kts 226°
2026-05-05 18:35 41.94457 3.42807 21628 ft 337 kts 226°
2026-05-05 18:35 41.92832 3.40547 21198 ft 334 kts 226°
2026-05-05 18:36 41.91231 3.38321 20819 ft 330 kts 226°
2026-05-05 18:36 41.89640 3.36114 20440 ft 328 kts 226°
2026-05-05 18:36 41.88054 3.33915 20065 ft 328 kts 226°
2026-05-05 18:36 41.86471 3.31720 19694 ft 327 kts 226°
2026-05-05 18:37 41.84893 3.29530 19328 ft 326 kts 226°
2026-05-05 18:37 41.83315 3.27344 18963 ft 326 kts 226°
2026-05-05 18:37 41.81741 3.25166 18609 ft 325 kts 226°
2026-05-05 18:37 41.80166 3.22990 18255 ft 325 kts 226°
2026-05-05 18:38 41.78592 3.20817 17859 ft 324 kts 226°
2026-05-05 18:38 41.77026 3.18655 17456 ft 323 kts 225°
2026-05-05 18:38 41.75463 3.16500 17057 ft 322 kts 225°
2026-05-05 18:38 41.73907 3.14354 16664 ft 321 kts 225°
2026-05-05 18:39 41.72357 3.12219 16266 ft 318 kts 225°
2026-05-05 18:39 41.70838 3.10136 15886 ft 317 kts 225°
2026-05-05 18:39 41.69302 3.08032 15512 ft 315 kts 225°
2026-05-05 18:39 41.67773 3.05936 15140 ft 314 kts 225°
2026-05-05 18:40 41.66240 3.03847 14793 ft 316 kts 226°
2026-05-05 18:40 41.64957 3.01469 14343 ft 317 kts 241°
2026-05-05 18:40 41.63951 2.98849 13857 ft 317 kts 242°
2026-05-05 18:40 41.63279 2.97075 13428 ft 317 kts 242°
2026-05-05 18:41 41.62289 2.94445 12858 ft 315 kts 242°
2026-05-05 18:41 41.61309 2.91852 12396 ft 310 kts 242°
2026-05-05 18:41 41.60337 2.89303 11928 ft 306 kts 242°
2026-05-05 18:41 41.59370 2.86794 11466 ft 302 kts 242°
2026-05-05 18:42 41.58408 2.84313 11003 ft 299 kts 242°
2026-05-05 18:42 41.57457 2.81859 10552 ft 297 kts 242°
2026-05-05 18:42 41.56513 2.79432 10247 ft 289 kts 242°
2026-05-05 18:42 41.55604 2.77105 10066 ft 278 kts 242°
2026-05-05 18:43 41.54714 2.74828 9689 ft 275 kts 243°
2026-05-05 18:43 41.53836 2.72578 9334 ft 272 kts 243°
2026-05-05 18:43 41.52967 2.70349 9018 ft 270 kts 242°
2026-05-05 18:43 41.52107 2.68144 8704 ft 266 kts 242°
2026-05-05 18:44 41.51256 2.65959 8400 ft 266 kts 243°
2026-05-05 18:44 41.50398 2.63760 8065 ft 267 kts 243°
2026-05-05 18:44 41.49543 2.61574 7711 ft 265 kts 243°
2026-05-05 18:44 41.48699 2.59427 7418 ft 265 kts 243°
2026-05-05 18:45 41.47847 2.57256 7114 ft 264 kts 243°
2026-05-05 18:45 41.46999 2.55092 6811 ft 263 kts 243°
2026-05-05 18:45 41.46154 2.52935 6515 ft 262 kts 243°
2026-05-05 18:45 41.45311 2.50785 6203 ft 261 kts 243°
2026-05-05 18:46 41.44472 2.48647 5875 ft 260 kts 243°
2026-05-05 18:46 41.43634 2.46517 5541 ft 259 kts 244°
2026-05-05 18:46 41.42800 2.44397 5223 ft 258 kts 243°
2026-05-05 18:46 41.41972 2.42292 4893 ft 255 kts 244°
2026-05-05 18:47 41.41152 2.40212 4565 ft 252 kts 244°
2026-05-05 18:47 41.40340 2.38156 4234 ft 249 kts 244°
2026-05-05 18:47 41.39538 2.36125 3907 ft 247 kts 244°
2026-05-05 18:47 41.38722 2.34133 3599 ft 243 kts 244°
2026-05-05 18:48 41.37986 2.32148 3445 ft 233 kts 247°
2026-05-05 18:48 41.37325 2.30216 3221 ft 226 kts 247°
2026-05-05 18:48 41.36685 2.28321 2937 ft 223 kts 248°
2026-05-05 18:48 41.36051 2.26454 2652 ft 219 kts 248°
2026-05-05 18:49 41.35433 2.24635 2363 ft 213 kts 248°
2026-05-05 18:49 41.34831 2.22866 2078 ft 207 kts 247°
2026-05-05 18:49 41.34246 2.21148 1808 ft 201 kts 247°
2026-05-05 18:49 41.33680 2.19486 1571 ft 189 kts 247°
2026-05-05 18:50 41.33169 2.17974 1330 ft 168 kts 246°
2026-05-05 18:50 41.32703 2.16630 1110 ft 152 kts 247°
2026-05-05 18:50 41.32282 2.15408 890 ft 141 kts 248°
2026-05-05 18:50 41.31885 2.14233 682 ft 139 kts 246°
2026-05-05 18:51 41.31501 2.13049 486 ft 139 kts 244°
2026-05-05 18:51 41.31087 2.11880 325 ft 142 kts 242°
2026-05-05 18:51 41.30679 2.10685 133 ft 143 kts 244°
2026-05-05 18:51 41.30270 2.09493 23 ft 136 kts 243°
2026-05-05 18:52 41.29930 2.08510 25 ft 93 kts 245°
2026-05-05 18:52 41.29758 2.08016 18 ft 32 kts 237°
2026-05-05 18:52 41.29628 2.07864 16 ft 17 kts 213°
2026-05-05 18:52 41.29564 2.07798 16 ft 9 kts 216°
2026-05-05 18:53 41.29515 2.07760 18 ft 5 kts 177°
2026-05-05 18:53 41.29502 2.07805 17 ft 8 kts 75°
2026-05-05 18:53 41.29540 2.07913 18 ft 15 kts 64°
2026-05-05 18:53 41.29587 2.08046 18 ft 17 kts 64°
2026-05-05 18:54 41.29628 2.08175 17 ft 13 kts 80°
2026-05-05 18:54 41.29564 2.08260 16 ft 15 kts 156°
2026-05-05 18:54 41.29469 2.08315 17 ft 15 kts 156°
2026-05-05 18:54 41.29373 2.08372 19 ft 15 kts 155°
2026-05-05 18:55 41.29275 2.08433 23 ft 16 kts 155°
2026-05-05 18:55 41.29165 2.08430 20 ft 17 kts 198°
2026-05-05 18:55 41.29052 2.08358 19 ft 19 kts 230°
2026-05-05 18:55 41.28994 2.08197 19 ft 20 kts 245°
2026-05-05 18:56 41.28951 2.08071 19 ft 8 kts 249°
2026-05-05 18:56 41.28979 2.08022 19 ft 8 kts 331°
2026-05-05 18:56 41.29008 2.08004 19 ft 2 kts 336°
2026-05-05 18:56 41.29012 2.08002 19 ft 0 kts 336°